GFSNW_250_spd_228.txt.gz
Wind_Speed
46 43 38 35 35 35 35 39 41 52 55 55 57 63 78 85 95 105 116 126 133 139 135 136 134 132 126 119 112 111 105 109 105 98 93 93 92 92 89 84 72 73 73 58
46 44 38 33 31 33 33 36 39 46 48 45 50 63 66 74 84 93 100 109 123 132 139 144 140 134 126 123 118 113 107 111 110 107 104 101 96 88 94 83 86 77 79 59
46 44 38 33 29 28 30 34 37 42 43 43 50 57 62 67 77 81 88 95 105 119 125 141 142 141 137 130 125 121 122 118 115 109 97 94 99 94 92 89 92 75 75 58
45 44 40 33 29 24 27 29 35 40 36 45 50 50 56 61 69 77 83 88 94 101 114 131 139 144 140 137 129 128 130 126 126 124 110 112 107 104 103 102 93 92 75 71
43 43 41 35 30 27 21 24 25 30 37 39 38 41 51 58 68 72 77 79 87 99 101 114 133 140 145 143 138 137 136 136 130 125 120 116 115 108 111 108 101 99 85 81
43 42 40 38 30 30 27 18 19 23 31 33 32 41 47 50 65 61 66 70 89 96 91 102 109 124 136 150 149 147 147 140 139 135 130 123 128 115 113 112 110 101 94 73
43 41 39 37 32 28 30 24 18 21 27 24 32 41 41 47 54 55 60 65 77 70 84 92 98 104 114 127 140 151 147 143 144 142 143 139 129 126 112 112 112 110 101 84
41 41 39 37 33 27 29 27 21 22 27 30 35 40 39 44 50 53 57 60 57 72 75 78 86 94 98 103 117 133 145 151 149 148 149 143 128 119 118 120 111 103 101 89
41 40 38 37 33 27 29 30 22 20 26 37 39 36 41 42 47 50 47 51 59 62 65 64 73 80 86 93 95 108 127 148 158 157 154 152 130 129 121 123 122 110 105 99
41 39 37 36 33 29 29 31 23 19 26 41 32 37 38 42 45 44 47 49 49 46 47 56 60 64 72 75 84 96 108 122 145 153 158 151 126 132 135 135 123 103 106 94
40 38 37 35 32 30 30 31 22 22 26 33 33 35 36 38 41 43 47 46 43 47 45 45 49 52 60 62 71 86 97 108 113 120 136 136 135 138 141 136 130 117 110 103
39 37 36 33 32 30 30 30 25 22 24 31 30 32 34 35 37 37 41 43 45 45 45 40 43 43 50 56 60 74 86 91 98 109 115 104 132 147 147 141 138 127 118 115
38 36 35 32 31 30 30 29 26 23 24 28 29 30 31 31 33 30 40 44 44 43 45 45 48 46 51 54 59 72 71 84 93 101 96 89 112 138 149 147 141 130 130 128
37 35 34 31 30 29 29 28 25 23 22 25 28 29 29 30 32 33 38 38 40 42 45 45 49 52 54 56 61 62 67 81 82 88 82 86 97 118 132 138 142 137 132 133
35 34 32 30 29 29 27 26 24 23 21 24 28 31 30 29 32 36 37 36 36 39 42 44 49 52 56 60 61 57 66 72 80 72 79 77 86 103 109 121 133 137 136 129
34 32 30 29 28 28 27 26 23 22 21 23 26 27 30 31 31 34 35 33 32 37 41 43 47 51 53 54 53 59 62 67 70 64 68 70 82 89 93 98 106 116 124 129
33 30 28 28 28 27 27 25 22 21 22 24 25 27 29 31 31 33 34 33 33 32 35 42 45 43 39 42 42 58 63 67 65 60 61 62 72 81 89 84 87 91 94 100
32 29 26 26 27 26 25 23 19 19 22 24 23 23 25 26 29 31 31 27 24 22 29 33 36 35 33 33 50 63 66 63 53 54 58 63 70 77 80 79 80 77 71 67
31 27 25 23 25 24 24 22 18 16 19 20 20 21 22 24 26 25 24 23 22 25 29 33 30 36 37 45 50 54 61 55 52 50 53 61 66 74 78 81 77 76 83 91
30 26 23 20 22 22 22 22 19 16 16 15 15 16 18 20 20 22 25 25 26 28 32 32 35 38 43 41 43 55 59 51 46 46 51 58 63 69 73 79 82 77 82 81
29 25 23 20 20 20 19 20 18 16 14 13 12 14 15 16 17 19 23 24 27 27 28 28 31 35 38 39 44 49 50 41 40 49 52 58 63 68 76 91 88 84 81 88
27 24 22 20 18 19 18 17 17 15 15 14 12 11 11 14 16 18 19 21 22 24 24 26 28 32 35 36 38 42 43 40 40 47 50 52 60 66 86 92 91 90 95 93
26 23 22 20 18 18 17 16 15 15 13 12 13 11 11 12 13 16 17 18 19 19 20 23 25 28 31 33 35 36 39 41 39 44 49 51 58 69 92 100 100 101 98 98
24 22 20 19 18 17 16 17 15 14 14 12 12 12 11 12 12 14 14 16 18 19 20 21 22 24 27 30 32 34 36 38 43 45 47 51 57 68 84 101 107 107 109 109
23 21 19 17 17 17 16 15 15 14 14 14 12 12 13 12 12 13 13 14 17 18 20 20 21 22 24 26 28 32 34 37 40 44 47 52 62 74 88 97 109 112 112 111
21 20 18 16 16 16 15 15 15 14 13 12 12 12 13 14 13 14 14 14 15 17 18 19 21 22 22 24 27 30 33 36 37 39 47 53 65 70 86 102 107 110 111 104
21 19 17 15 14 14 15 15 15 14 14 13 13 12 12 13 15 15 16 17 17 17 18 18 20 22 22 23 26 29 32 34 38 43 50 55 63 71 78 87 93 101 101 101

GFSNW_250_spd_231.txt.gz
Wind_Speed
59 55 49 45 39 35 32 36 39 38 35 38 41 50 59 65 75 85 94 100 108 126 135 142 144 139 138 132 130 124 118 118 114 109 107 104 100 97 95 91 80 79 73 56
58 53 49 44 38 32 34 32 37 36 31 35 41 50 54 58 67 77 84 92 97 110 129 139 143 142 138 136 131 126 124 124 120 115 111 109 106 101 99 91 92 83 77 52
56 52 50 44 38 33 31 29 34 31 32 33 39 50 54 57 64 70 77 84 92 100 112 128 142 142 138 136 133 130 130 129 127 123 119 118 113 108 104 98 101 81 79 56
54 51 49 43 39 33 29 24 28 29 32 34 37 43 54 57 60 63 69 75 85 94 101 113 122 138 140 139 137 135 135 134 132 132 127 120 116 116 113 112 101 100 75 72
53 51 47 44 39 35 29 24 21 27 30 33 36 39 50 55 58 59 64 71 83 88 91 98 110 124 135 146 145 146 144 137 140 139 131 127 123 122 117 115 107 104 86 82
52 50 47 43 38 33 32 20 22 24 26 30 34 39 46 53 53 54 60 72 75 78 87 100 107 114 127 132 147 148 147 144 145 139 137 134 129 124 122 114 111 106 100 75
51 50 46 42 37 32 32 26 22 23 25 27 32 32 40 43 45 48 53 60 64 68 78 87 96 100 107 118 131 138 143 150 148 140 143 142 126 124 125 120 112 107 101 84
50 49 44 41 37 31 31 29 21 23 29 26 30 31 33 36 37 39 45 50 52 70 70 79 84 89 96 100 109 121 131 142 150 152 148 141 135 125 122 120 116 112 104 87
50 47 44 41 36 31 31 27 22 23 30 32 25 26 33 37 35 37 41 52 53 59 64 67 65 71 80 88 94 104 114 124 142 143 153 156 136 131 127 130 126 117 113 101
49 46 42 39 35 32 31 26 21 24 31 34 25 28 30 35 36 33 39 47 48 51 55 60 61 62 68 70 80 92 101 109 116 124 140 141 133 137 138 148 124 123 122 114
49 45 41 38 35 31 31 27 21 23 31 36 27 28 31 34 36 37 41 42 43 46 46 51 55 59 67 72 78 83 94 103 104 105 115 111 118 145 149 142 133 129 127 119
47 43 41 37 34 31 28 29 22 22 30 38 28 28 31 31 34 35 39 41 44 43 41 42 49 52 59 67 74 87 89 92 95 102 101 91 99 127 143 145 141 138 133 127
44 40 39 36 34 31 27 26 24 22 28 32 30 29 27 31 34 34 36 40 43 43 42 41 42 45 54 57 68 82 80 88 90 91 74 75 87 105 128 137 139 142 140 138
42 39 37 36 34 32 27 23 22 21 24 28 28 29 28 29 33 35 35 36 41 43 42 40 39 40 48 56 62 63 74 82 78 74 67 77 82 97 109 119 130 145 147 143
39 37 36 35 33 32 27 24 21 20 21 24 25 28 28 27 30 33 32 34 37 39 38 38 38 40 43 49 55 61 68 69 69 59 72 73 78 92 105 107 111 120 131 138
36 35 34 34 33 31 27 24 22 19 19 21 23 28 28 29 29 29 31 32 35 37 34 34 37 38 35 41 54 62 63 66 64 63 71 69 74 80 92 100 100 99 101 104
35 33 32 33 32 30 27 24 22 20 19 20 22 25 27 29 29 28 28 29 31 33 31 32 37 34 30 41 56 66 67 66 61 64 63 62 68 73 82 81 87 89 87 88
34 32 31 31 31 29 26 23 22 21 19 20 21 23 23 23 25 28 27 29 28 28 29 32 33 28 30 45 64 58 53 49 50 57 58 58 61 66 73 71 77 78 77 82
33 31 30 30 30 28 25 23 22 21 20 19 20 21 22 22 24 25 24 24 24 26 30 30 29 38 42 51 49 49 47 46 50 47 47 50 54 59 63 64 65 68 69 75
31 30 29 29 27 26 23 22 21 20 18 18 18 19 19 19 19 21 23 24 25 27 30 32 38 45 39 41 44 46 46 47 45 44 48 49 52 54 58 60 53 59 64 68
30 29 28 28 25 24 22 21 21 19 18 17 16 16 16 16 17 18 20 21 25 28 29 32 36 33 32 36 40 41 43 42 40 36 38 42 46 52 56 53 54 58 63 69
29 28 27 26 24 23 20 19 19 18 16 16 15 15 14 14 15 16 17 19 21 22 24 25 26 27 26 28 33 35 37 36 35 30 32 37 43 48 49 47 48 50 53 58
28 27 27 26 23 22 19 17 17 16 16 14 14 13 14 15 14 13 14 16 16 19 20 21 23 23 23 24 27 29 30 30 29 26 29 36 43 45 46 46 51 55 57 60
27 26 25 25 23 21 18 16 16 15 15 14 11 11 12 14 15 15 13 13 14 15 15 16 19 20 20 21 22 24 25 25 24 23 27 36 39 45 50 54 55 61 67 66
26 25 25 24 22 21 19 16 15 14 13 13 13 11 11 12 14 16 17 15 14 14 13 12 15 16 17 17 19 20 22 20 21 23 28 34 39 47 51 50 53 58 66 70
25 24 24 23 21 20 18 16 15 14 14 13 12 12 11 12 12 14 17 18 18 16 14 13 14 15 16 16 16 19 20 18 22 25 29 35 43 48 46 50 59 70 77 76
24 24 23 23 21 20 19 17 16 14 14 14 13 13 13 12 12 13 15 15 17 18 17 16 15 16 15 15 15 17 19 18 20 26 30 34 41 49 53 57 66 75 79 85

GFSNW_250_spd_237.txt.gz
Wind_Speed
71 68 63 57 53 49 45 43 39 36 35 35 35 35 37 36 40 44 49 56 65 77 90 107 114 126 129 134 142 136 128 127 122 116 112 113 108 105 109 108 104 99 94 88
73 68 64 58 53 47 44 42 43 34 35 34 33 36 36 35 37 40 45 52 59 69 82 95 112 124 130 132 134 139 136 127 119 119 118 113 112 110 111 108 106 102 99 80
73 68 64 58 51 46 44 40 42 39 32 31 34 35 38 33 34 37 41 49 55 63 76 88 104 120 128 131 132 138 140 136 128 123 124 119 119 116 115 111 109 108 107 82
73 69 63 58 49 45 44 40 40 39 36 28 34 33 38 34 32 34 37 46 54 60 68 82 99 112 122 130 134 137 142 141 133 127 123 122 123 121 119 115 111 103 85 82
72 69 63 57 48 43 43 39 37 39 38 33 30 30 32 37 30 30 35 41 52 60 65 77 93 106 115 126 132 136 141 142 138 130 120 121 123 117 115 116 116 107 96 91
71 68 64 55 48 43 43 39 37 36 42 35 27 27 30 35 31 30 33 39 48 54 63 72 85 96 106 114 126 134 138 142 142 140 138 135 128 116 118 116 113 104 102 96
71 68 64 55 48 43 41 37 36 35 41 33 29 30 29 34 31 32 33 37 46 56 60 62 70 83 96 104 116 128 136 140 145 145 148 147 130 129 125 119 117 112 109 104
71 67 63 54 49 44 41 36 32 34 41 30 31 30 28 29 31 34 32 34 42 49 50 56 63 76 86 98 105 117 131 138 142 149 151 148 138 137 128 128 120 116 117 112
71 66 62 54 49 44 41 36 30 33 39 28 32 31 29 27 29 34 33 31 34 41 47 52 55 64 75 86 97 108 117 127 137 145 148 150 142 141 140 134 134 129 123 118
70 65 60 53 48 44 41 36 31 33 38 25 32 28 29 27 28 34 33 28 30 35 44 47 50 56 64 75 86 98 106 113 119 134 144 145 142 148 148 149 140 135 133 131
68 64 59 52 48 43 40 35 31 33 38 28 30 28 27 28 27 33 30 27 28 31 34 43 50 52 58 63 75 85 95 102 110 119 130 137 141 148 154 152 153 143 140 142
67 62 57 51 47 43 40 34 30 33 37 28 28 28 28 29 27 29 27 31 31 31 33 39 44 53 59 64 70 78 81 90 101 108 113 117 128 140 152 152 152 149 151 149
64 60 55 50 46 42 39 34 30 32 35 30 27 27 28 28 29 28 28 31 28 31 34 37 40 44 51 57 65 73 75 83 88 96 93 101 109 121 139 143 144 147 149 151
62 58 53 49 45 41 38 34 31 30 33 29 27 27 26 28 30 31 30 30 30 32 33 36 38 42 47 53 58 63 70 75 78 75 75 83 95 113 119 124 128 128 136 143
60 56 50 48 43 39 37 34 30 29 31 28 26 25 25 27 28 30 32 30 30 32 33 33 39 42 44 48 50 56 64 65 66 62 74 80 79 89 94 100 109 112 113 120
57 54 48 46 41 38 36 33 32 29 27 28 24 26 26 26 26 28 31 32 31 31 33 34 36 42 41 42 42 49 55 60 57 50 65 65 66 74 80 88 95 97 93 105
55 52 47 43 39 37 35 33 31 30 25 25 24 25 27 27 25 25 27 29 31 29 31 34 37 40 38 40 44 57 44 43 46 47 51 52 61 60 69 74 77 78 78 84
53 50 45 41 38 35 34 33 31 29 26 24 23 25 26 26 25 25 25 26 26 27 28 32 36 38 39 42 50 39 46 44 43 45 45 51 59 60 65 69 68 69 71 77
51 48 44 39 36 33 32 32 30 28 25 24 22 24 26 27 26 25 25 24 24 26 27 30 32 38 42 46 41 40 45 43 42 43 45 50 53 53 56 58 61 61 63 66
49 46 42 38 35 32 31 31 29 27 24 22 22 23 25 25 24 24 24 24 23 25 26 29 34 40 41 39 41 44 43 39 39 41 44 45 47 48 51 53 58 57 59 59
47 44 40 36 34 31 30 29 29 26 24 21 21 22 23 23 22 23 23 22 21 22 23 27 29 32 35 39 40 40 40 38 35 36 40 41 42 46 47 48 50 51 53 54
45 43 38 34 32 31 30 29 28 25 23 22 21 21 21 21 20 20 20 19 19 19 21 23 24 25 28 30 30 30 32 34 32 30 31 35 37 40 43 45 45 46 47 47
44 42 37 33 31 30 29 28 28 24 23 22 21 21 20 20 19 17 17 17 17 17 19 20 22 22 24 26 27 25 29 31 31 28 24 27 31 34 37 42 42 41 40 39
43 39 37 32 30 29 28 27 27 24 22 22 21 21 20 19 18 16 16 16 16 16 16 17 19 21 23 23 25 25 28 30 28 27 25 25 24 27 31 35 35 33 34 37
42 38 34 31 32 28 28 27 26 24 22 21 21 21 20 20 18 16 15 15 16 16 15 15 16 19 21 22 24 25 26 25 25 24 25 26 25 24 24 30 31 29 31 34
41 37 30 32 31 28 28 26 26 24 22 21 21 22 22 20 19 18 16 13 14 16 15 16 16 17 18 19 20 23 23 23 21 22 23 23 23 22 22 22 21 21 28 32
40 35 28 32 31 28 28 27 26 24 22 21 21 22 23 21 20 18 17 15 14 13 13 14 16 18 17 16 17 21 22 20 20 21 22 20 22 22 20 21 22 23 22 25

GFSNW_250_spd_240.txt.gz
Wind_Speed
94 91 85 77 71 66 62 59 53 43 41 40 33 34 34 34 33 33 35 39 45 55 64 70 80 89 98 109 119 128 129 125 118 111 109 116 120 111 112 115 104 96 88 82
95 92 85 77 71 67 63 57 53 46 43 40 34 33 34 32 31 31 32 35 40 49 59 69 77 87 96 106 113 122 126 129 119 115 113 116 120 120 117 120 116 112 103 87
95 93 86 77 71 68 64 55 49 49 46 37 35 32 33 31 30 30 29 33 40 47 55 64 75 85 95 102 110 118 128 132 126 119 118 118 117 119 122 123 117 114 107 88
95 91 85 77 70 68 64 55 49 45 47 40 32 29 30 31 31 28 28 31 38 44 52 60 72 82 91 100 105 113 123 131 127 125 124 121 121 120 122 124 124 119 105 96
94 91 84 78 71 67 64 55 47 47 44 41 33 24 29 33 33 28 29 30 34 40 49 56 65 77 84 94 102 110 117 127 130 122 125 125 123 121 115 115 116 114 112 101
93 90 82 76 70 66 62 52 47 43 48 40 33 26 30 30 30 31 31 30 31 38 46 53 60 69 77 82 94 105 113 120 127 126 134 131 125 120 121 121 113 109 108 104
91 88 80 75 70 66 61 52 44 42 47 41 30 30 29 27 29 31 32 30 30 37 38 46 51 58 69 76 85 97 108 117 128 135 129 129 124 127 126 117 114 108 98 95
90 85 78 73 70 65 60 52 41 41 47 39 30 32 29 29 27 28 32 30 30 29 33 43 49 59 66 75 81 91 102 113 124 131 134 132 127 122 114 115 108 103 103 102
88 81 75 72 69 64 59 52 41 40 44 37 30 36 31 28 30 29 31 29 26 29 31 36 42 53 61 68 76 84 93 104 117 125 130 130 130 128 125 120 110 111 111 111
86 77 73 71 67 63 57 52 41 42 42 34 32 33 35 30 30 31 27 27 26 29 28 32 42 51 59 64 71 79 85 97 104 118 125 125 137 138 134 133 120 120 118 113
83 75 72 69 65 61 55 51 42 41 42 34 32 31 33 31 30 28 22 27 28 28 29 34 41 47 54 62 68 73 78 84 94 104 114 118 138 148 151 148 137 138 133 126
79 74 70 67 63 59 53 50 42 42 41 32 29 32 33 31 26 26 20 29 26 26 30 34 38 45 48 60 64 68 73 76 86 94 100 108 122 137 149 151 150 146 138 137
76 72 69 66 62 58 52 46 42 40 41 34 29 30 31 32 27 25 22 26 23 27 29 29 33 38 45 51 60 65 68 72 78 84 87 100 111 118 137 146 147 150 154 149
73 70 67 63 60 56 51 45 41 38 41 36 30 30 30 30 28 25 23 21 25 25 27 28 32 37 42 47 56 59 65 68 75 75 82 89 98 105 119 131 140 140 149 153
70 68 64 60 58 53 49 44 40 36 39 38 30 31 29 28 26 26 23 20 21 23 25 29 33 36 38 44 45 49 61 63 64 64 77 80 84 92 102 110 116 121 133 141
67 65 61 57 55 51 47 43 39 35 32 40 33 30 30 29 25 24 24 23 19 19 21 27 33 37 36 40 42 49 50 52 54 58 66 68 72 81 91 94 99 105 112 122
66 61 58 55 53 49 45 42 38 35 31 31 36 32 30 29 24 23 22 23 21 20 21 23 30 36 34 39 43 53 48 50 49 50 55 58 64 70 78 84 86 90 92 100
63 58 56 52 50 47 43 40 37 35 32 30 30 32 31 26 25 23 23 22 22 21 21 24 27 29 29 33 49 50 47 42 43 49 52 50 56 60 66 71 74 76 77 82
60 55 54 50 47 45 42 39 37 34 31 30 28 30 31 26 24 24 23 22 20 20 23 25 23 28 26 39 42 40 40 40 43 44 43 44 49 55 61 66 68 67 67 68
57 54 51 48 45 42 40 39 36 34 31 31 27 29 28 25 23 24 25 24 22 22 20 22 25 28 31 33 35 38 39 37 36 39 39 38 41 46 55 62 61 62 60 58
54 53 49 46 44 42 37 37 34 33 32 29 28 27 26 23 23 23 24 23 22 21 21 22 24 27 28 31 33 34 34 35 35 34 35 36 37 42 47 52 51 51 49 50
53 51 49 44 42 41 38 36 33 32 30 29 29 26 24 22 22 22 22 22 21 21 21 21 21 23 26 29 32 33 34 35 36 35 35 35 36 40 44 48 47 46 46 48
52 50 48 43 41 37 37 36 32 32 30 29 28 27 24 21 21 21 21 21 20 20 20 20 19 22 23 25 28 30 32 34 35 36 35 36 37 37 39 43 45 42 39 39
51 48 47 42 38 38 35 33 31 31 29 28 28 27 24 20 19 19 20 20 19 19 19 18 19 19 21 23 26 27 28 31 32 31 29 28 31 33 34 38 39 38 38 35
50 47 45 42 35 37 34 32 32 31 29 28 27 27 25 21 18 18 19 20 19 18 18 18 18 19 19 21 23 25 26 28 28 28 28 27 27 26 25 27 30 32 34 30
50 48 43 38 36 35 33 31 31 30 29 28 27 26 26 23 19 17 17 18 18 18 19 18 17 19 20 20 21 22 23 25 25 26 27 26 25 24 23 22 24 27 27 26
51 47 41 36 35 34 32 31 31 30 29 28 27 26 25 23 20 18 17 18 18 17 18 17 18 19 19 20 21 21 22 22 23 24 24 24 23 22 21 18 17 20 22 25

GFSNW_250_spd_246.txt.gz
Wind_Speed
61 67 72 79 85 86 90 94 90 85 74 66 62 59 51 48 42 36 34 37 34 34 33 35 37 41 44 43 50 54 58 68 78 86 96 99 106 108 113 116 111 109 113 105
63 69 76 81 87 90 91 95 91 84 73 66 62 58 52 46 42 36 34 35 33 31 32 34 35 38 42 41 46 53 56 65 76 86 96 104 110 111 116 117 112 109 111 102
65 72 79 84 90 92 95 91 87 83 72 66 62 56 50 46 40 39 34 33 31 30 32 32 36 35 40 41 46 52 55 63 74 86 97 107 110 114 119 121 118 110 107 104
69 75 82 87 91 93 97 90 84 81 74 65 59 53 49 48 44 38 34 32 30 30 33 31 32 36 37 42 45 51 56 64 75 86 97 104 109 108 110 113 110 109 107 99
72 78 85 90 92 96 101 89 81 79 71 65 59 52 52 48 42 38 35 30 30 29 32 30 32 38 38 41 46 50 58 65 73 83 95 99 102 106 104 110 112 111 111 101
76 82 88 92 95 99 101 87 79 73 71 65 57 53 51 48 42 37 32 32 28 29 29 31 35 36 38 37 44 50 58 64 69 78 89 92 99 107 108 112 113 112 109 105
79 84 89 94 96 100 101 87 80 72 70 60 55 54 50 47 42 38 34 25 30 31 27 29 33 37 38 39 42 48 54 62 69 78 82 89 100 108 109 105 107 110 110 106
82 86 91 96 99 102 103 86 80 70 68 60 57 54 49 47 41 34 30 30 27 29 32 29 33 38 39 41 41 45 53 58 65 75 80 89 97 102 103 105 110 109 106 104
83 88 93 98 101 103 101 84 78 71 67 58 55 54 50 46 42 35 29 31 28 28 30 31 33 35 38 41 44 44 50 54 60 69 74 85 91 97 101 107 111 110 110 105
86 92 95 100 101 104 101 85 77 69 66 59 54 51 48 45 40 36 32 29 29 29 28 30 32 34 31 38 42 40 44 51 52 57 68 82 91 96 101 109 112 111 111 107
88 93 97 101 102 103 96 83 77 69 66 60 54 51 46 43 39 34 32 29 30 30 28 28 30 30 30 36 42 42 42 44 50 55 61 81 89 97 99 108 119 116 115 113
90 95 98 100 103 102 92 83 78 69 65 59 52 51 48 42 38 33 30 28 30 28 26 27 28 27 30 35 39 39 41 42 47 53 64 75 81 89 94 102 117 120 117 119
93 96 101 100 103 102 91 82 79 69 65 60 53 48 45 42 38 33 29 29 29 28 26 28 26 27 29 32 36 37 39 41 43 48 63 71 78 86 91 98 109 114 125 121
97 98 102 103 102 102 90 80 76 69 65 60 52 48 45 42 38 34 29 29 26 27 27 26 27 26 29 32 33 34 38 38 40 49 59 64 73 78 83 91 98 104 111 129
99 102 103 104 104 100 89 79 74 68 64 62 51 44 44 40 36 32 30 28 27 24 27 26 26 25 29 29 32 38 36 38 41 51 56 59 63 68 73 79 86 97 108 117
101 104 105 107 104 98 87 79 72 65 62 60 56 44 44 41 35 30 29 28 25 25 25 26 25 24 30 31 36 42 41 36 36 44 48 54 58 63 69 75 79 86 99 105
104 105 107 110 103 95 85 75 70 62 60 57 55 49 40 39 35 30 29 27 23 23 24 24 26 26 32 33 38 34 26 24 34 40 44 49 55 60 62 68 74 79 86 96
109 108 110 109 100 92 84 71 67 60 58 53 50 51 44 39 33 30 29 27 23 21 22 25 27 25 31 35 30 29 27 29 32 37 43 47 49 51 56 61 66 72 80 88
112 111 111 103 98 90 80 67 63 59 57 51 48 46 43 40 34 29 29 26 24 19 19 23 25 23 29 34 31 28 27 30 31 32 36 42 46 51 55 57 60 65 72 78
112 111 104 97 94 83 71 64 59 56 56 50 46 44 42 38 34 29 30 27 25 21 20 20 20 22 25 29 33 31 28 25 25 29 36 40 44 46 48 50 55 59 63 67
111 107 98 93 84 76 67 60 58 55 52 47 45 42 39 37 32 30 29 26 24 23 22 21 21 20 23 26 29 33 29 25 23 25 29 34 39 42 44 47 48 50 51 56
110 105 96 87 77 69 61 56 56 54 53 46 43 39 36 35 33 30 27 26 24 24 21 23 22 19 20 23 26 27 29 27 25 25 26 28 30 34 39 43 45 48 52 56
107 100 89 77 70 64 58 55 54 51 49 46 42 39 37 34 32 30 27 24 23 24 22 23 22 18 18 19 21 23 24 26 27 27 27 29 30 33 36 38 42 46 50 50
99 88 76 69 66 60 56 53 53 50 48 45 41 38 34 34 32 30 27 26 24 23 23 24 23 20 16 17 18 20 21 22 23 24 25 27 30 32 35 38 38 40 40 43
78 70 64 66 64 57 55 53 52 48 47 44 41 38 35 32 31 31 27 26 25 23 23 23 22 22 18 17 17 17 19 21 21 22 23 25 25 26 28 29 30 32 37 42
64 61 64 66 59 57 54 52 52 48 46 45 41 37 36 34 30 32 27 26 25 23 23 24 22 21 20 19 17 16 17 18 19 20 20 21 24 25 25 26 27 31 35 36
59 61 66 61 55 56 55 51 51 47 46 44 40 38 37 34 34 31 29 27 25 23 24 24 23 22 20 19 19 17 16 17 18 18 18 17 17 21 23 23 26 29 30 28

GFSNW_250_spd_252.txt.gz
Wind_Speed
34 38 42 45 48 51 54 58 64 67 72 78 83 89 89 77 70 60 57 52 47 43 41 36 30 31 32 34 33 35 39 45 52 47 56 61 66 76 80 86 89 90 92 91
37 40 44 50 52 54 58 63 67 71 74 78 85 91 92 78 70 61 57 52 47 42 37 35 29 30 29 33 31 32 37 43 47 44 52 57 61 70 76 80 82 86 90 90
41 44 48 52 56 58 62 67 71 75 77 80 86 92 94 81 70 62 57 54 49 45 40 31 35 30 28 27 30 29 34 41 43 44 44 50 55 64 69 72 75 81 84 90
45 47 50 54 58 61 65 70 76 80 79 81 85 93 94 83 73 65 56 56 49 42 41 35 29 30 29 25 26 29 31 38 39 43 43 46 52 58 64 67 72 73 82 85
48 49 53 56 59 63 66 71 77 82 81 84 88 93 96 85 74 65 59 56 53 41 36 36 33 25 27 28 20 29 28 38 36 42 41 44 49 52 56 63 68 73 80 82
51 53 56 59 61 65 68 72 77 83 83 86 89 94 97 90 75 69 59 54 52 45 37 34 31 28 26 28 26 21 29 32 33 43 39 42 48 50 54 59 66 70 75 77
54 55 58 62 64 67 70 72 76 83 86 86 89 93 99 96 82 67 62 56 52 46 39 34 30 28 30 27 25 21 30 29 32 42 38 42 48 46 52 57 62 66 71 76
56 58 60 63 66 68 72 74 77 83 87 86 91 94 98 98 89 72 59 55 52 47 40 36 32 27 29 29 25 23 28 28 33 40 37 42 42 45 52 56 57 65 72 75
60 60 62 65 68 69 73 76 78 83 87 87 90 94 98 98 90 77 63 56 52 49 42 36 32 31 30 27 28 24 26 30 34 39 38 40 41 46 52 54 57 64 72 78
62 63 64 67 69 71 75 77 79 83 88 89 90 94 98 99 89 76 63 58 53 50 44 37 32 31 31 28 26 26 26 30 35 36 38 42 42 43 51 53 58 62 71 78
64 65 66 68 71 73 76 78 81 85 88 92 90 94 100 100 93 79 65 57 52 49 44 39 33 32 32 29 26 25 26 30 31 30 37 44 38 42 47 54 59 60 67 76
66 67 68 71 72 75 78 80 82 85 90 93 91 94 101 103 96 84 67 58 53 50 43 37 32 31 32 29 25 24 25 26 25 26 31 39 38 41 45 55 58 60 64 70
68 70 71 73 74 77 80 82 84 87 89 96 93 95 101 104 100 85 70 60 55 50 45 39 35 32 32 30 26 25 23 22 19 22 29 35 33 39 42 50 55 58 63 65
70 72 74 76 77 79 82 85 86 89 89 95 99 93 99 102 99 87 72 59 56 50 48 41 34 32 31 28 27 22 17 18 17 27 30 35 34 36 43 47 52 55 57 63
74 76 78 79 81 82 84 87 89 90 91 95 100 99 100 102 100 84 68 57 54 51 47 43 38 31 34 26 24 18 19 21 23 28 28 36 35 37 42 45 47 54 58 61
76 78 80 82 83 85 86 88 90 92 93 94 100 101 101 103 102 84 67 56 52 49 46 43 40 35 34 28 20 18 19 21 24 29 31 38 38 34 40 45 48 52 55 60
78 80 82 83 85 89 89 89 91 94 97 98 101 103 103 103 101 82 67 56 50 48 44 40 40 36 38 31 21 12 19 21 24 28 31 35 38 39 41 43 47 51 55 58
82 84 86 87 88 91 92 91 94 96 99 101 104 106 105 104 97 77 62 54 50 48 42 39 39 35 36 36 31 22 12 17 22 28 29 31 36 38 39 40 45 50 53 55
86 87 89 90 90 92 93 94 97 100 103 103 104 106 107 109 94 75 59 50 47 47 39 38 39 32 33 33 31 29 24 18 18 26 28 28 28 30 34 37 41 45 49 54
88 90 91 92 94 94 96 97 100 103 106 108 106 108 108 107 88 69 55 49 45 48 38 36 39 30 31 33 30 29 27 23 19 20 26 27 27 31 33 34 38 42 45 48
92 93 94 96 96 98 98 101 106 108 109 109 109 110 106 98 80 64 50 48 44 46 43 34 37 30 30 31 31 29 27 25 21 18 22 27 28 31 33 33 34 36 39 42
97 97 97 99 100 102 103 106 110 112 112 111 113 110 104 83 72 57 48 44 42 42 43 37 31 31 32 29 29 28 26 25 23 19 17 22 27 30 32 31 34 36 38 41
103 102 102 103 105 107 109 113 114 115 116 114 113 103 84 72 63 52 45 42 43 39 43 36 28 32 31 29 28 26 25 25 24 22 19 18 20 26 29 30 32 34 37 40
108 107 107 107 109 113 116 117 118 117 115 112 101 85 72 65 57 49 44 41 42 42 39 35 32 30 28 29 28 26 24 23 24 24 23 21 20 21 24 29 31 32 35 38
113 112 110 110 117 118 121 121 120 116 107 94 83 71 62 58 54 48 43 41 41 43 36 33 32 30 29 29 29 27 24 22 23 23 23 23 23 22 22 24 26 30 33 35
118 116 116 119 121 125 127 122 109 93 84 78 68 61 56 54 51 48 47 43 42 37 36 35 32 31 29 28 29 27 26 24 23 22 23 24 24 24 23 23 24 25 27 30
119 120 121 125 123 121 113 97 86 77 69 64 59 54 53 50 49 50 49 43 39 35 35 37 34 32 28 28 29 28 26 25 24 23 22 23 23 24 25 24 24 24 23 24